This demonstration page uses our WeatherBlox Daily Observations layout. Learn more.

Left ArrowRight Arrow

Hourly Observations for May 22, 2022

Temp ( °F °C ) Dew Point ( °F °C ) Humidity (%) Winds ( mph kmh ) Pressure ( in mb ) Visibility ( mi km ) Precip ( " mm )
12:53 am 00:53 Clear 37 2.8 22 -5.6 54 54 N 10 17 30.16 1021 10 16 0.00 0.00
1:53 am 01:53 Clear 38 3.3 21 -6.1 51 51 ENE 8 13 30.14 1021 10 16 0.00 0.00
2:53 am 02:53 Clear 37 2.8 21 -6.1 52 52 ENE 9 15 30.12 1020 10 16 0.00 0.00
3:53 am 03:53 Clear 37 2.8 23 -5 57 57 E 6 9 30.12 1020 10 16 0.00 0.00
4:53 am 04:53 Clear 34 1.1 24 -4.4 67 67 E 5 7 30.13 1020 10 16 0.00 0.00
5:53 am 05:53 Sunny 26 -3.3 21 -6.1 81 81 WSW 3 6 30.17 1022 10 16 0.00 0.00
6:53 am 06:53 Sunny 33 0.6 26 -3.3 75 75 Calm 30.16 1021 10 16 0.00 0.00
7:53 am 07:53 Sunny 44 6.7 28 -2.2 53 53 undefined N/A 30.11 1020 10 16 0.00 0.00
8:53 am 08:53 Sunny 48 8.9 28 -2.2 46 46 E 12 19 30.11 1020 10 16 0.00 0.00
9:53 am 09:53 Sunny 52 11.1 24 -4.4 34 34 NE 7 11 30.07 1018 10 16 0.00 0.00
10:53 am 10:53 Sunny 55 12.8 24 -4.4 30 30 NNE 5 7 30.05 1018 10 16 0.00 0.00
11:53 am 11:53 Mostly Sunny 58 14.4 16 -8.9 19 19 NNW 5 7 30.03 1017 10 16 0.00 0.00
12:53 pm 12:53 Sunny 61 16.1 20 -6.7 20 20 WNW 13 20 30.01 1016 10 16 0.00 0.00
1:53 pm 13:53 Partly Cloudy 58 14.4 18 -7.8 21 21 Calm 29.99 1016 10 16 0.00 0.00
2:53 pm 14:53 Partly Cloudy 61 16.1 19 -7.2 20 20 WSW 9 15 29.95 1014 10 16 0.00 0.00
3:53 pm 15:53 Mostly Cloudy 60 15.6 22 -5.6 23 23 S 12 19 29.93 1014 10 16 0.00 0.00
4:53 pm 16:53 Cloudy 59 15 24 -4.4 26 26 SSW 14 22 29.94 1014 10 16 0.00 0.00
5:53 pm 17:53 Cloudy 57 13.9 22 -5.6 26 26 N 13 20 29.98 1015 10 16 0.00 0.00
6:53 pm 18:53 Mostly Cloudy 55 12.8 24 -4.4 30 30 N 14 22 29.98 1015 10 16 0.00 0.00
7:53 pm 19:53 Cloudy 53 11.7 25 -3.9 34 34 NNW 15 24 29.98 1015 10 16 0.00 0.00
8:53 pm 20:53 Cloudy 51 10.6 29 -1.7 43 43 NE 7 11 30.01 1016 10 16 0.00 0.00
9:53 pm 21:53 Mostly Cloudy 48 8.9 30 -1.1 50 50 E 6 9 30.01 1016 10 16 0.00 0.00
10:53 pm 22:53 Mostly Clear 46 7.8 30 -1.1 54 54 S 15 24 29.98 1015 10 16 0.00 0.00
11:53 pm 23:53 Partly Cloudy 44 6.7 31 -0.6 60 60 N 3 6 29.99 1016 10 16 0.00 0.00

Powered by AerisWeather